| time (UTC) | temp F | wind direction | speed knots | gust knots | rain 1hr in | rain 24hr in | rain mn in | humidity % | barometer mb |
| 20260504192333 | 87 | 202 | 0.0 | 0.0 | 0.00 | 0.00 | 0.04 | 73 | 1013.1 |
| 20260504191034 | 86 | 22 | 2.6 | 7.0 | 0.00 | 0.00 | 0.04 | 76 | 1013.1 |
| 20260504190029 | 87 | 225 | 0.0 | 0.0 | 0.00 | 0.00 | 0.04 | 73 | 1013.1 |
| 20260504185029 | 87 | 225 | 0.0 | 0.0 | 0.00 | 0.00 | 0.04 | 72 | 1013.2 |
| 20260504184029 | 87 | 0 | 1.7 | 4.3 | 0.00 | 0.00 | 0.04 | 72 | 1013.1 |
| 20260504181349 | 87 | 0 | 0.0 | 0.0 | 0.00 | 0.00 | 0.04 | 71 | 1013.2 |
| 20260504175741 | 87 | 112 | 2.6 | 6.1 | 0.02 | 0.00 | 0.04 | 72 | 1013.1 |
| 20260504174742 | 87 | 0 | 0.0 | 0.0 | 0.02 | 0.00 | 0.04 | 70 | 1013.2 |
| 20260504173421 | 87 | 0 | 0.0 | 1.7 | 0.01 | 0.00 | 0.02 | 70 | 1013.1 |
| 20260504172421 | 88 | 22 | 6.1 | 13.0 | 0.01 | 0.00 | 0.02 | 69 | 1013.1 |
| 20260504171421 | 88 | 270 | 0.0 | 0.0 | 0.01 | 0.00 | 0.02 | 69 | 1013.2 |
| 20260504170236 | 88 | 0 | 0.0 | 0.0 | 0.00 | 0.00 | 0.00 | 68 | 1013.2 |
| 20260504160237 | 86 | 225 | 0.0 | 0.9 | 0.01 | 0.02 | 0.77 | 69 | 1013.2 |
| 20260504150159 | 88 | 90 | 0.0 | 0.0 | 0.00 | 0.00 | 0.00 | 78 | 1013.2 |
| 20260504141319 | 88 | 112 | 0.0 | 0.0 | 0.00 | 0.00 | 0.00 | 77 | 1013.2 |
| 20260504140318 | 88 | 22 | 0.0 | 0.0 | 0.00 | 0.00 | 0.00 | 76 | 1013.1 |
| 20260504130553 | 89 | 0 | 0.0 | 0.0 | 0.00 | 0.00 | 0.00 | 75 | 1013.1 |
| 20260504081149 | 95 | 0 | 0.0 | 0.0 | 0.00 | 0.00 | 0.00 | 60 | 1013.1 |
| 20260504070207 | 97 | 67 | 0.0 | 0.0 | 0.00 | 0.00 | 0.00 | 60 | 1013.1 |
| 20260504050323 | 95 | 225 | 7.0 | 16.5 | 0.00 | 0.00 | 0.00 | 63 | 1013.1 |
| 20260504045323 | 96 | 112 | 7.8 | 19.1 | 0.00 | 0.00 | 0.00 | 62 | 1013.1 |
| 20260504043450 | 95 | 112 | 7.0 | 16.5 | 0.00 | 0.00 | 0.00 | 64 | 1013.1 |
| 20260504040054 | 97 | 67 | 15.6 | 35.6 | 0.00 | 0.00 | 0.00 | 59 | 1013.2 |
| 20260504035055 | 97 | 67 | 13.0 | 28.7 | 0.00 | 0.00 | 0.00 | 59 | 1013.2 |
| 20260504034050 | 97 | 315 | 4.3 | 10.4 | 0.00 | 0.00 | 0.00 | 60 | 1013.2 |
| 20260504033051 | 96 | 112 | 13.0 | 28.7 | 0.00 | 0.00 | 0.00 | 60 | 1013.2 |
| 20260504032050 | 96 | 225 | 4.3 | 10.4 | 0.00 | 0.00 | 0.00 | 61 | 1013.2 |
| 20260504030828 | 96 | 225 | 1.7 | 4.3 | 0.00 | 0.00 | 0.00 | 60 | 1013.1 |
| 20260504025830 | 96 | 112 | 7.0 | 15.6 | 0.00 | 0.00 | 0.00 | 61 | 1013.1 |
| 20260504024828 | 96 | 202 | 0.0 | 0.9 | 0.00 | 0.00 | 0.00 | 61 | 1013.1 |
| 20260504023826 | 95 | 112 | 13.0 | 29.5 | 0.00 | 0.00 | 0.00 | 63 | 1013.1 |
| 20260504021402 | 95 | 225 | 19.1 | 44.3 | 0.00 | 0.00 | 0.00 | 61 | 1013.2 |
| 20260504020406 | 95 | 67 | 0.9 | 2.6 | 0.00 | 0.00 | 0.00 | 62 | 1013.1 |
| 20260504015402 | 95 | 112 | 3.5 | 7.8 | 0.00 | 0.00 | 0.00 | 61 | 1013.2 |
| 20260504014400 | 95 | 0 | 5.2 | 13.0 | 0.00 | 0.00 | 0.00 | 62 | 1013.1 |
| 20260504013401 | 94 | 315 | 4.3 | 9.6 | 0.00 | 0.00 | 0.00 | 63 | 1013.1 |
| 20260504012357 | 94 | 315 | 7.0 | 15.6 | 0.00 | 0.00 | 0.00 | 65 | 1013.1 |
| 20260504010904 | 93 | 67 | 11.3 | 26.1 | 0.00 | 0.00 | 0.00 | 66 | 1013.1 |
| 20260504005903 | 93 | 112 | 7.8 | 18.2 | 0.00 | 0.00 | 0.00 | 66 | 1013.2 |
| 20260504004903 | 93 | 112 | 3.5 | 7.8 | 0.00 | 0.00 | 0.00 | 67 | 1013.1 |
| 20260504003905 | 92 | 112 | 1.7 | 4.3 | 0.00 | 0.00 | 0.00 | 68 | 1013.1 |
| 20260504001450 | 91 | 315 | 2.6 | 7.0 | 0.00 | 0.00 | 0.00 | 69 | 1013.1 |
| 20260504000450 | 91 | 67 | 4.3 | 9.6 | 0.00 | 0.00 | 0.00 | 69 | 1013.1 |
| 20260503235449 | 91 | 67 | 8.7 | 19.1 | 0.00 | 0.00 | 0.00 | 70 | 1013.1 |
| 20260503234447 | 91 | 202 | 0.9 | 2.6 | 0.00 | 0.00 | 0.00 | 69 | 1013.1 |
| 20260503233444 | 91 | 67 | 0.0 | 0.0 | 0.00 | 0.00 | 0.00 | 68 | 1013.2 |
| 20260503231712 | 90 | 67 | 0.9 | 1.7 | 0.00 | 0.00 | 0.00 | 69 | 1013.2 |
| 20260503230059 | 91 | 67 | 7.0 | 15.6 | 0.00 | 0.00 | 0.00 | 69 | 1013.1 |
| 20260503223943 | 91 | 0 | 0.0 | 0.9 | 0.00 | 0.00 | 0.00 | 68 | 1013.2 |
| 20260503222942 | 91 | 67 | 2.6 | 6.1 | 0.00 | 0.00 | 0.00 | 68 | 1013.2 |
| 20260503221942 | 91 | 202 | 1.7 | 3.5 | 0.00 | 0.00 | 0.00 | 68 | 1013.1 |
| 20260503220942 | 91 | 67 | 1.7 | 4.3 | 0.00 | 0.00 | 0.00 | 68 | 1013.2 |
| 20260503215942 | 91 | 67 | 2.6 | 7.0 | 0.00 | 0.00 | 0.00 | 68 | 1013.1 |
| 20260503214943 | 91 | 0 | 20.9 | 46.9 | 0.00 | 0.00 | 0.00 | 68 | 1013.2 |
| 20260503212401 | 91 | 135 | 10.4 | 23.5 | 0.00 | 0.00 | 0.00 | 68 | 1013.1 |
| 20260503211401 | 91 | 0 | 7.8 | 17.4 | 0.00 | 0.00 | 0.00 | 68 | 1013.1 |
| 20260503210402 | 91 | 315 | 0.0 | 0.0 | 0.00 | 0.00 | 0.00 | 69 | 1013.2 |
| 20260503205401 | 91 | 112 | 0.0 | 0.9 | 0.00 | 0.00 | 0.00 | 70 | 1013.1 |
| 20260503203733 | 91 | 112 | 8.7 | 19.1 | 0.00 | 0.00 | 0.00 | 70 | 1013.2 |
| 20260503202734 | 91 | 225 | 4.3 | 10.4 | 0.00 | 0.00 | 0.00 | 70 | 1013.1 |
| 20260503201520 | 91 | 67 | 8.7 | 20.0 | 0.00 | 0.00 | 0.00 | 69 | 1013.1 |
| 20260503200520 | 91 | 112 | 7.8 | 17.4 | 0.00 | 0.00 | 0.00 | 69 | 1013.1 |
| 20260503195521 | 91 | 202 | 5.2 | 12.2 | 0.00 | 0.00 | 0.00 | 69 | 1013.1 |
| 20260503194142 | 90 | 112 | 0.0 | 0.9 | 0.00 | 0.00 | 0.00 | 70 | 1013.2 |